Location: San Martino di Castrozza
(46.2667°N, 11.8000°E)
Time: 17:34:58
(UTC+00:00)

Cosmos 1953 - Pass Details

Date: 01 August 2021
Orbit: 538 x 556 km, 82.5° (Epoch: 18 September)

Event Time Altitude Azimuth Distance (km) Brightness Sun altitude
Rises 02:26:10 0° 137° (SE) 2,725 5.9 -13.1°
Reaches altitude 10° 02:29:38 10° 104° (ESE) 1,834 5.4 -12.7°
Maximum altitude 02:31:05 12° 83° (E) 1,726 5.7 -12.5°
Drops below altitude 10° 02:32:36 10° 61° (ENE) 1,846 6.4 -12.4°
Sets 02:36:00 0° 30° (NNE) 2,732 7.5 -11.9°
